Location: ???? ???? ?????
(31.2680°N, 31.7283°E)
Time: 19:26:25
(UTC+00:00)

Atlas Centaur 2 - Pass Details

Date: 13 July 2020
Orbit: 459 x 1310 km, 30.4° (Epoch: 05 August)

Event Time Altitude Azimuth Distance (km) Brightness Sun altitude
Rises 18:14:47 0° 273° (W) 2,786 5.9 -14.6°
Reaches altitude 10° 18:17:01 10° 264° (W) 1,990 4.8 -15.0°
Maximum altitude 18:21:15 36° 198° (SSW) 1,142 2.7 -15.7°
Enters shadow 18:23:48 23° 151° (SSE) 1,601 3.1 -16.1°
